,,,PA_Meas_PMT16A,,PR_Meas_QMR101_102,,RH_Meas_QMH101,,SR_Meas_QMS101,,TA_Meas_QMH101,,GenWind,,GenWind,
date,time,status,PA,status,PR,status,RH,status,SR,status,TA,status,DirAvg,status,SpdAvg,
2010-06-24, 00:00:04,VALID,1009.5,VALID,0,VALID,101.323,VALID,0,VALID,23.3823,VALID,7,VALID,0.394141,
2010-06-24, 00:01:04,VALID,1009.5,VALID,0,VALID,101.354,VALID,0,VALID,23.3628,VALID,7,VALID,0.508594,
2010-06-24, 00:02:04,VALID,1009.52,VALID,0,VALID,101.369,VALID,0,VALID,23.3238,VALID,7,VALID,0.444141,
2010-06-24, 00:03:04,VALID,1009.48,VALID,0,VALID,101.354,VALID,0,VALID,23.3043,VALID,7,VALID,0.207031,
2010-06-24, 00:04:04,VALID,1009.46,VALID,0,VALID,101.354,VALID,0,VALID,23.3043,VALID,7,VALID,0.0804688,
2010-06-24, 00:05:04,VALID,1009.43,VALID,0,VALID,101.354,VALID,0,VALID,23.2848,VALID,7,VALID,0,
2010-06-24, 00:06:04,VALID,1009.42,VALID,0,VALID,101.346,VALID,0,VALID,23.2848,VALID,7,VALID,0.0820313,
2010-06-24, 00:07:04,VALID,1009.38,VALID,0,VALID,101.331,VALID,0,VALID,23.2848,VALID,7,VALID,0,
2010-06-24, 00:08:04,VALID,1009.36,VALID,0,VALID,101.308,VALID,0,VALID,23.3043,VALID,65,VALID,0.219141,
2010-06-24, 00:09:04,VALID,1009.34,VALID,0,VALID,101.285,VALID,0,VALID,23.3043,VALID,65,VALID,0.00507812,
2010-06-24, 00:10:04,VALID,1009.34,VALID,0,VALID,101.27,VALID,0,VALID,23.3238,VALID,65,VALID,0,
2010-06-24, 00:11:04,VALID,1009.37,VALID,0,VALID,101.247,VALID,0,VALID,23.3433,VALID,65,VALID,0,
2010-06-24, 00:12:04,VALID,1009.37,VALID,0,VALID,101.262,VALID,0,VALID,23.3433,VALID,65,VALID,0,
2010-06-24, 00:13:04,VALID,1009.37,VALID,0,VALID,101.247,VALID,0,VALID,23.3628,VALID,65,VALID,0.254687,
2010-06-24, 00:14:04,VALID,1009.37,VALID,0,VALID,101.262,VALID,0,VALID,23.3628,VALID,65,VALID,0.309375,
2010-06-24, 00:15:04,VALID,1009.41,VALID,0,VALID,101.247,VALID,0,VALID,23.3823,VALID,75,VALID,0.689062,
2010-06-24, 00:16:04,VALID,1009.41,VALID,0,VALID,101.255,VALID,0,VALID,23.3823,VALID,63,VALID,0.555469,
2010-06-24, 00:17:04,VALID,1009.4,VALID,0,VALID,101.262,VALID,0,VALID,23.3628,VALID,65,VALID,0.672656,
2010-06-24, 00:18:04,VALID,1009.4,VALID,0,VALID,101.278,VALID,0,VALID,23.3628,VALID,70,VALID,0.805078,
2010-06-24, 00:19:04,VALID,1009.4,VALID,0,VALID,101.293,VALID,0,VALID,23.3628,VALID,86,VALID,0.884766,
2010-06-24, 00:20:04,VALID,1009.38,VALID,0,VALID,101.278,VALID,0,VALID,23.322,VALID,85,VALID,0.764844,
2010-06-24, 00:21:04,VALID,1009.33,VALID,0,VALID,101.293,VALID,0,VALID,23.3433,VALID,101,VALID,0.621875,
2010-06-24, 00:22:04,VALID,1009.32,VALID,0,VALID,101.293,VALID,0,VALID,23.3433,VALID,101,VALID,0.462109,
2010-06-24, 00:23:04,VALID,1009.29,VALID,0,VALID,101.278,VALID,0,VALID,23.3628,VALID,101,VALID,0.250391,
2010-06-24, 00:24:04,VALID,1009.25,VALID,0,VALID,101.27,VALID,0,VALID,23.3415,VALID,101,VALID,0.01875,
2010-06-24, 00:25:04,VALID,1009.23,VALID,0,VALID,101.262,VALID,0.105969,VALID,23.3628,VALID,116,VALID,0.571484,
2010-06-24, 00:26:04,VALID,1009.21,VALID,0,VALID,101.247,VALID,0.105969,VALID,23.3823,VALID,118,VALID,0.257813,
2010-06-24, 00:27:04,VALID,1009.21,VALID,0,VALID,101.255,VALID,0,VALID,23.3823,VALID,149,VALID,0.866406,
2010-06-24, 00:28:04,VALID,1009.21,VALID,0,VALID,101.24,VALID,0,VALID,23.3823,VALID,149,VALID,0.584375,
2010-06-24, 00:29:04,VALID,1009.22,VALID,0,VALID,101.247,VALID,0,VALID,23.361,VALID,120,VALID,0.520312,
2010-06-24, 00:30:04,VALID,1009.24,VALID,0,VALID,101.285,VALID,0,VALID,23.3823,VALID,152,VALID,0.623828,
2010-06-24, 00:31:04,VALID,1009.23,VALID,0,VALID,101.285,VALID,0,VALID,23.3645,VALID,152,VALID,0.642578,
2010-06-24, 00:32:04,VALID,1009.21,VALID,0,VALID,101.323,VALID,0,VALID,23.3238,VALID,150,VALID,0.7,
2010-06-24, 00:33:04,VALID,1009.21,VALID,0,VALID,101.308,VALID,0,VALID,23.3238,VALID,149,VALID,0.384375,
2010-06-24, 00:34:04,VALID,1009.21,VALID,0,VALID,101.285,VALID,0,VALID,23.3026,VALID,132,VALID,0.478516,
2010-06-24, 00:35:04,VALID,1009.22,VALID,0,VALID,101.293,VALID,0,VALID,23.3238,VALID,123,VALID,0.602344,
2010-06-24, 00:36:04,VALID,1009.22,VALID,0,VALID,101.27,VALID,0,VALID,23.3238,VALID,123,VALID,0.897656,
2010-06-24, 00:37:04,VALID,1009.19,VALID,0,VALID,101.262,VALID,0,VALID,23.3433,VALID,123,VALID,0.648828,
2010-06-24, 00:38:04,VALID,1009.18,VALID,0,VALID,101.278,VALID,0,VALID,23.3238,VALID,114,VALID,0.569141,
2010-06-24, 00:39:04,VALID,1009.11,VALID,0,VALID,101.262,VALID,0,VALID,23.3433,VALID,109,VALID,0.446484,
2010-06-24, 00:40:04,VALID,1009.06,VALID,0,VALID,101.24,VALID,0,VALID,23.3415,VALID,97,VALID,0.407422,
2010-06-24, 00:41:04,VALID,1009.01,VALID,0,VALID,101.27,VALID,0,VALID,23.3628,VALID,41,VALID,0.632031,
2010-06-24, 00:42:04,VALID,1008.97,VALID,0,VALID,101.247,VALID,0,VALID,23.3823,VALID,44,VALID,0.555859,
2010-06-24, 00:43:04,VALID,1008.89,VALID,0,VALID,101.27,VALID,0.105969,VALID,23.3415,VALID,56,VALID,0.543359,
2010-06-24, 00:44:04,VALID,1008.89,VALID,0,VALID,101.262,VALID,0,VALID,23.3433,VALID,57,VALID,0.046875,
2010-06-24, 00:45:04,VALID,1008.85,VALID,0,VALID,101.278,VALID,0,VALID,23.3433,VALID,57,VALID,0,
2010-06-24, 00:46:04,VALID,1008.85,VALID,0,VALID,101.301,VALID,0,VALID,23.3238,VALID,57,VALID,0,
2010-06-24, 00:47:04,VALID,1008.85,VALID,0,VALID,101.262,VALID,0.105969,VALID,23.3433,VALID,57,VALID,0,
2010-06-24, 00:48:04,VALID,1008.8,VALID,0,VALID,101.293,VALID,0,VALID,23.3238,VALID,57,VALID,0,
2010-06-24, 00:49:04,VALID,1008.77,VALID,0,VALID,101.285,VALID,0,VALID,23.3026,VALID,77,VALID,0.316406,
2010-06-24, 00:50:04,VALID,1008.77,VALID,0,VALID,101.262,VALID,0.105969,VALID,23.3238,VALID,77,VALID,0.0574219,
2010-06-24, 00:51:04,VALID,1008.75,VALID,0,VALID,101.262,VALID,0.105969,VALID,23.3238,VALID,77,VALID,0.123828,
2010-06-24, 00:52:04,VALID,1008.74,VALID,0,VALID,101.301,VALID,0,VALID,23.3238,VALID,77,VALID,0,
2010-06-24, 00:53:04,VALID,1008.75,VALID,0,VALID,101.262,VALID,0,VALID,23.2831,VALID,77,VALID,0,
2010-06-24, 00:54:04,VALID,1008.73,VALID,0,VALID,101.278,VALID,0.105969,VALID,23.2831,VALID,77,VALID,0,
2010-06-24, 00:55:04,VALID,1008.72,VALID,0,VALID,101.278,VALID,0,VALID,23.3043,VALID,77,VALID,0,
2010-06-24, 00:56:04,VALID,1008.72,VALID,0,VALID,101.285,VALID,0.105969,VALID,23.2831,VALID,77,VALID,0,
2010-06-24, 00:57:04,VALID,1008.71,VALID,0,VALID,101.27,VALID,0.105969,VALID,23.3026,VALID,77,VALID,0.130469,
2010-06-24, 00:58:04,VALID,1008.7,VALID,0,VALID,101.262,VALID,0,VALID,23.3043,VALID,84,VALID,0.439453,
2010-06-24, 00:59:04,VALID,1008.68,VALID,0,VALID,101.285,VALID,0,VALID,23.2848,VALID,133,VALID,0.744531,
2010-06-24, 01:00:04,VALID,1008.69,VALID,0,VALID,101.27,VALID,0,VALID,23.2636,VALID,133,VALID,0.925781,
2010-06-24, 01:01:04,VALID,1008.71,VALID,0,VALID,101.262,VALID,0.105969,VALID,23.2831,VALID,131,VALID,0.669922,
2010-06-24, 01:02:04,VALID,1008.68,VALID,0,VALID,101.278,VALID,0,VALID,23.3043,VALID,130,VALID,0.451562,
2010-06-24, 01:03:04,VALID,1008.67,VALID,0,VALID,101.262,VALID,0,VALID,23.3043,VALID,130,VALID,0.628125,
2010-06-24, 01:04:04,VALID,1008.67,VALID,0,VALID,101.255,VALID,0,VALID,23.3043,VALID,130,VALID,0.436328,
2010-06-24, 01:05:04,VALID,1008.66,VALID,0,VALID,101.24,VALID,0,VALID,23.3043,VALID,130,VALID,0.321484,
2010-06-24, 01:06:04,VALID,1008.64,VALID,0,VALID,101.255,VALID,0,VALID,23.3043,VALID,130,VALID,0.325391,
2010-06-24, 01:07:04,VALID,1008.62,VALID,0,VALID,101.27,VALID,0.105969,VALID,23.3238,VALID,130,VALID,0.247266,
2010-06-24, 01:08:04,VALID,1008.6,VALID,0,VALID,101.255,VALID,0,VALID,23.3043,VALID,56,VALID,0.474219,
2010-06-24, 01:09:04,VALID,1008.58,VALID,0,VALID,101.24,VALID,0,VALID,23.3026,VALID,44,VALID,0.505078,
2010-06-24, 01:10:04,VALID,1008.53,VALID,0,VALID,101.24,VALID,0,VALID,23.3238,VALID,40,VALID,0.165625,
2010-06-24, 01:11:04,VALID,1008.5,VALID,0,VALID,101.285,VALID,0,VALID,23.3043,VALID,40,VALID,0.362109,
2010-06-24, 01:12:04,VALID,1008.47,VALID,0,VALID,101.308,VALID,0,VALID,23.2636,VALID,40,VALID,0.0941406,
2010-06-24, 01:13:04,VALID,1008.44,VALID,0,VALID,101.255,VALID,0,VALID,23.2848,VALID,40,VALID,0.0175781,
2010-06-24, 01:14:04,VALID,1008.43,VALID,0,VALID,101.27,VALID,0,VALID,23.2848,VALID,40,VALID,0,
2010-06-24, 01:15:04,VALID,1008.42,VALID,0,VALID,101.278,VALID,0,VALID,23.2848,VALID,40,VALID,0,
2010-06-24, 01:16:04,VALID,1008.41,VALID,0,VALID,101.278,VALID,0,VALID,23.2848,VALID,40,VALID,0.285937,
2010-06-24, 01:17:04,VALID,1008.38,VALID,0,VALID,101.278,VALID,0,VALID,23.2459,VALID,40,VALID,0.150391,
2010-06-24, 01:18:04,VALID,1008.36,VALID,0,VALID,101.293,VALID,0.105969,VALID,23.2459,VALID,40,VALID,0,
2010-06-24, 01:19:04,VALID,1008.34,VALID,0,VALID,101.278,VALID,0.105969,VALID,23.2246,VALID,40,VALID,0.0414063,
2010-06-24, 01:20:04,VALID,1008.33,VALID,0,VALID,101.301,VALID,0,VALID,23.2246,VALID,40,VALID,0.0425781,
2010-06-24, 01:21:04,VALID,1008.34,VALID,0,VALID,101.262,VALID,0,VALID,23.2264,VALID,40,VALID,0.33125,
2010-06-24, 01:22:04,VALID,1008.33,VALID,0,VALID,101.285,VALID,0,VALID,23.2051,VALID,40,VALID,0,
2010-06-24, 01:23:04,VALID,1008.31,VALID,0,VALID,101.308,VALID,0,VALID,23.2069,VALID,40,VALID,0,
2010-06-24, 01:24:04,VALID,1008.32,VALID,0,VALID,101.308,VALID,0.105969,VALID,23.1857,VALID,40,VALID,0,
2010-06-24, 01:25:04,VALID,1008.33,VALID,0,VALID,101.308,VALID,0,VALID,23.1874,VALID,40,VALID,0,
2010-06-24, 01:26:04,VALID,1008.29,VALID,0,VALID,101.301,VALID,0,VALID,23.1679,VALID,40,VALID,0,
2010-06-24, 01:27:04,VALID,1008.26,VALID,0,VALID,101.331,VALID,0.105969,VALID,23.1679,VALID,40,VALID,0,
2010-06-24, 01:28:04,VALID,1008.27,VALID,0,VALID,101.308,VALID,0,VALID,23.1679,VALID,40,VALID,0.420312,
2010-06-24, 01:29:04,VALID,1008.26,VALID,0,VALID,101.278,VALID,0,VALID,23.1679,VALID,57,VALID,0.685547,
2010-06-24, 01:30:04,VALID,1008.28,VALID,0,VALID,101.293,VALID,0,VALID,23.1485,VALID,60,VALID,0.376953,
2010-06-24, 01:31:04,VALID,1008.29,VALID,0,VALID,101.285,VALID,0,VALID,23.1679,VALID,44,VALID,0.45625,
2010-06-24, 01:32:04,VALID,1008.27,VALID,0,VALID,101.278,VALID,0.105969,VALID,23.1679,VALID,65,VALID,0.672656,
2010-06-24, 01:33:04,VALID,1008.25,VALID,0,VALID,101.255,VALID,0,VALID,23.1679,VALID,65,VALID,0.608984,
2010-06-24, 01:34:04,VALID,1008.28,VALID,0,VALID,101.285,VALID,0.105969,VALID,23.1467,VALID,57,VALID,0.570703,
2010-06-24, 01:35:04,VALID,1008.25,VALID,0,VALID,101.285,VALID,0,VALID,23.1485,VALID,37,VALID,0.0347656,
2010-06-24, 01:36:04,VALID,1008.28,VALID,0,VALID,101.293,VALID,0,VALID,23.1485,VALID,59,VALID,0.701172,
2010-06-24, 01:37:04,VALID,1008.26,VALID,0,VALID,101.262,VALID,0,VALID,23.1485,VALID,41,VALID,0.473437,
2010-06-24, 01:38:04,VALID,1008.25,VALID,0,VALID,101.278,VALID,0,VALID,23.1485,VALID,18,VALID,0.350781,
2010-06-24, 01:39:04,VALID,1008.23,VALID,0,VALID,101.285,VALID,0,VALID,23.1679,VALID,18,VALID,0.300781,
2010-06-24, 01:40:04,VALID,1008.22,VALID,0,VALID,101.262,VALID,0,VALID,23.1485,VALID,18,VALID,0,
2010-06-24, 01:41:04,VALID,1008.18,VALID,0,VALID,101.278,VALID,0,VALID,23.1485,VALID,18,VALID,0,
2010-06-24, 01:42:04,VALID,1008.2,VALID,0,VALID,101.27,VALID,0,VALID,23.1272,VALID,18,VALID,0,
2010-06-24, 01:43:04,VALID,1008.18,VALID,0,VALID,101.255,VALID,0,VALID,23.1272,VALID,18,VALID,0.294922,
2010-06-24, 01:44:04,VALID,1008.17,VALID,0,VALID,101.247,VALID,0,VALID,23.1892,VALID,18,VALID,0,
2010-06-24, 01:45:04,VALID,1008.21,VALID,0,VALID,101.262,VALID,0,VALID,23.1874,VALID,18,VALID,0,
2010-06-24, 01:46:04,VALID,1008.23,VALID,0,VALID,101.24,VALID,0,VALID,23.1874,VALID,18,VALID,0,
2010-06-24, 01:47:04,VALID,1008.22,VALID,0,VALID,101.224,VALID,0.105969,VALID,23.1679,VALID,18,VALID,0,
2010-06-24, 01:48:04,VALID,1008.23,VALID,0,VALID,101.255,VALID,0,VALID,23.1679,VALID,18,VALID,0,
2010-06-24, 01:49:04,VALID,1008.21,VALID,0,VALID,101.262,VALID,0,VALID,23.1467,VALID,18,VALID,0.161719,
2010-06-24, 01:50:04,VALID,1008.21,VALID,0,VALID,101.262,VALID,0,VALID,23.1679,VALID,18,VALID,0,
2010-06-24, 01:51:04,VALID,1008.19,VALID,0,VALID,101.262,VALID,0,VALID,23.1679,VALID,18,VALID,0,
2010-06-24, 01:52:04,VALID,1008.22,VALID,0,VALID,101.232,VALID,0,VALID,23.1679,VALID,18,VALID,0,
2010-06-24, 01:53:04,VALID,1008.24,VALID,0,VALID,101.24,VALID,0,VALID,23.1874,VALID,18,VALID,0.317187,
2010-06-24, 01:54:04,VALID,1008.26,VALID,0,VALID,101.217,VALID,0,VALID,23.2069,VALID,23,VALID,0.372656,
2010-06-24, 01:55:04,VALID,1008.26,VALID,0,VALID,101.209,VALID,0,VALID,23.2069,VALID,30,VALID,0.233203,
2010-06-24, 01:56:04,VALID,1008.26,VALID,0,VALID,101.232,VALID,0,VALID,23.2069,VALID,79,VALID,0.541797,
2010-06-24, 01:57:04,VALID,1008.22,VALID,0,VALID,101.201,VALID,0,VALID,23.2264,VALID,72,VALID,0.382031,
2010-06-24, 01:58:04,VALID,1008.2,VALID,0,VALID,101.232,VALID,0,VALID,23.2264,VALID,72,VALID,0,
2010-06-24, 01:59:04,VALID,1008.2,VALID,0,VALID,101.201,VALID,0,VALID,23.2264,VALID,77,VALID,0.3125,
2010-06-24, 02:00:04,VALID,1008.23,VALID,0,VALID,101.209,VALID,0,VALID,23.2264,VALID,74,VALID,0.608594,
2010-06-24, 02:01:04,VALID,1008.21,VALID,0,VALID,101.247,VALID,0,VALID,23.2459,VALID,61,VALID,0.534375,
2010-06-24, 02:02:04,VALID,1008.26,VALID,0,VALID,101.24,VALID,0,VALID,23.2459,VALID,61,VALID,0.874609,
2010-06-24, 02:03:04,VALID,1008.26,VALID,0,VALID,101.232,VALID,0,VALID,23.2051,VALID,60,VALID,0.537109,
2010-06-24, 02:04:04,VALID,1008.29,VALID,0,VALID,101.247,VALID,0,VALID,23.2264,VALID,62,VALID,0.404687,
2010-06-24, 02:05:04,VALID,1008.31,VALID,0,VALID,101.247,VALID,0,VALID,23.2069,VALID,72,VALID,0.469141,
2010-06-24, 02:06:04,VALID,1008.3,VALID,0,VALID,101.262,VALID,0.105969,VALID,23.2069,VALID,85,VALID,1.07969,
2010-06-24, 02:07:04,VALID,1008.29,VALID,0,VALID,101.27,VALID,0,VALID,23.1662,VALID,85,VALID,0.714453,
2010-06-24, 02:08:04,VALID,1008.29,VALID,0,VALID,101.278,VALID,0,VALID,23.1874,VALID,85,VALID,0.610547,
2010-06-24, 02:09:04,VALID,1008.3,VALID,0,VALID,101.278,VALID,0,VALID,23.1679,VALID,84,VALID,0.622656,
2010-06-24, 02:10:04,VALID,1008.28,VALID,0,VALID,101.27,VALID,0,VALID,23.1679,VALID,81,VALID,0.774609,
2010-06-24, 02:11:04,VALID,1008.25,VALID,0,VALID,101.278,VALID,0,VALID,23.1485,VALID,76,VALID,0.561719,
2010-06-24, 02:12:04,VALID,1008.25,VALID,0,VALID,101.285,VALID,0,VALID,23.1485,VALID,77,VALID,0.411328,
2010-06-24, 02:13:04,VALID,1008.23,VALID,0,VALID,101.255,VALID,0,VALID,23.1485,VALID,77,VALID,0,
2010-06-24, 02:14:04,VALID,1008.22,VALID,0,VALID,101.255,VALID,0,VALID,23.1272,VALID,77,VALID,0,
2010-06-24, 02:15:04,VALID,1008.19,VALID,0,VALID,101.278,VALID,0,VALID,23.1485,VALID,77,VALID,0.428906,
2010-06-24, 02:16:04,VALID,1008.14,VALID,0,VALID,101.278,VALID,0.105969,VALID,23.1485,VALID,77,VALID,0.0121094,
2010-06-24, 02:17:04,VALID,1008.12,VALID,0,VALID,101.247,VALID,0,VALID,23.1679,VALID,77,VALID,0,
2010-06-24, 02:18:04,VALID,1008.11,VALID,0,VALID,101.224,VALID,0,VALID,23.1679,VALID,77,VALID,0.0363281,
2010-06-24, 02:19:04,VALID,1008.08,VALID,0,VALID,101.247,VALID,0,VALID,23.1679,VALID,77,VALID,0.321875,
2010-06-24, 02:20:04,VALID,1008.05,VALID,0,VALID,101.24,VALID,0,VALID,23.129,VALID,89,VALID,0.203125,
2010-06-24, 02:21:04,VALID,1008.05,VALID,0,VALID,101.285,VALID,0,VALID,23.1077,VALID,127,VALID,0.414453,
2010-06-24, 02:22:04,VALID,1008.06,VALID,0,VALID,101.27,VALID,0,VALID,23.129,VALID,123,VALID,0.420312,
2010-06-24, 02:23:04,VALID,1008.03,VALID,0,VALID,101.285,VALID,0.105969,VALID,23.1095,VALID,123,VALID,0.463672,
2010-06-24, 02:24:04,VALID,1008.05,VALID,0,VALID,101.262,VALID,0,VALID,23.09,VALID,123,VALID,0.373437,
2010-06-24, 02:25:04,VALID,1008.04,VALID,0,VALID,101.27,VALID,0,VALID,23.0883,VALID,123,VALID,0.0140625,
2010-06-24, 02:26:04,VALID,1008.02,VALID,0,VALID,101.262,VALID,0,VALID,23.0688,VALID,123,VALID,0,
2010-06-24, 02:27:04,VALID,1007.97,VALID,0,VALID,101.255,VALID,0,VALID,23.1095,VALID,123,VALID,0,
2010-06-24, 02:28:04,VALID,1008.02,VALID,0,VALID,101.247,VALID,0,VALID,23.1095,VALID,118,VALID,0.294531,
2010-06-24, 02:29:04,VALID,1008.02,VALID,0,VALID,101.247,VALID,0,VALID,23.129,VALID,102,VALID,0.717969,
2010-06-24, 02:30:04,VALID,1008,VALID,0,VALID,101.232,VALID,0,VALID,23.1485,VALID,98,VALID,0.499609,
2010-06-24, 02:31:04,VALID,1008.05,VALID,0,VALID,101.209,VALID,0.105969,VALID,23.1679,VALID,95,VALID,0.623047,
2010-06-24, 02:32:04,VALID,1008.04,VALID,0,VALID,101.217,VALID,0,VALID,23.1679,VALID,61,VALID,0.711719,
2010-06-24, 02:33:04,VALID,1008.02,VALID,0,VALID,101.224,VALID,0,VALID,23.1874,VALID,80,VALID,0.590234,
2010-06-24, 02:34:04,VALID,1008.04,VALID,0,VALID,101.217,VALID,0,VALID,23.1679,VALID,59,VALID,0.487109,
2010-06-24, 02:35:04,VALID,1008,VALID,0,VALID,101.217,VALID,0,VALID,23.1874,VALID,47,VALID,0.825,
2010-06-24, 02:36:04,VALID,1007.96,VALID,0,VALID,101.232,VALID,0,VALID,23.1874,VALID,52,VALID,0.542578,
2010-06-24, 02:37:04,VALID,1007.94,VALID,0,VALID,101.217,VALID,0,VALID,23.1874,VALID,43,VALID,0.615625,
2010-06-24, 02:38:04,VALID,1007.93,VALID,0,VALID,101.255,VALID,0,VALID,23.1679,VALID,33,VALID,0.424219,
2010-06-24, 02:39:04,VALID,1007.97,VALID,0,VALID,101.247,VALID,0,VALID,23.1679,VALID,25,VALID,0.382031,
2010-06-24, 02:40:04,VALID,1007.98,VALID,0,VALID,101.255,VALID,0.105969,VALID,23.129,VALID,39,VALID,0.367188,
2010-06-24, 02:41:04,VALID,1008.01,VALID,0,VALID,101.285,VALID,0.105969,VALID,23.129,VALID,65,VALID,0.948047,
2010-06-24, 02:42:04,VALID,1008.03,VALID,0,VALID,101.301,VALID,0,VALID,23.1095,VALID,67,VALID,0.668359,
2010-06-24, 02:43:04,VALID,1008.08,VALID,0,VALID,101.27,VALID,0.105969,VALID,23.09,VALID,71,VALID,0.808984,
2010-06-24, 02:44:04,VALID,1008.09,VALID,0,VALID,101.278,VALID,0.105969,VALID,23.0688,VALID,70,VALID,0.444922,
2010-06-24, 02:45:04,VALID,1008.07,VALID,0,VALID,101.27,VALID,0,VALID,23.09,VALID,53,VALID,0.502344,
2010-06-24, 02:46:04,VALID,1008.08,VALID,0,VALID,101.285,VALID,0.105969,VALID,23.0705,VALID,53,VALID,0.0261719,
2010-06-24, 02:47:04,VALID,1008.1,VALID,0,VALID,101.285,VALID,0.105969,VALID,23.0705,VALID,53,VALID,0,
2010-06-24, 02:48:04,VALID,1008.07,VALID,0,VALID,101.285,VALID,0,VALID,23.0705,VALID,55,VALID,0.467187,
2010-06-24, 02:49:04,VALID,1008.07,VALID,0,VALID,101.27,VALID,0,VALID,23.0511,VALID,57,VALID,0.422266,
2010-06-24, 02:50:04,VALID,1008.07,VALID,0,VALID,101.278,VALID,0.105969,VALID,23.0316,VALID,57,VALID,0.268359,
2010-06-24, 02:51:04,VALID,1008.07,VALID,0,VALID,101.255,VALID,0.105969,VALID,23.0511,VALID,57,VALID,0.387891,
2010-06-24, 02:52:04,VALID,1008.04,VALID,0,VALID,101.278,VALID,0,VALID,23.0316,VALID,57,VALID,0.2625,
2010-06-24, 02:53:04,VALID,1008.02,VALID,0,VALID,101.278,VALID,0,VALID,23.0316,VALID,57,VALID,0.265625,
2010-06-24, 02:54:04,VALID,1008.01,VALID,0,VALID,101.278,VALID,0,VALID,23.0121,VALID,57,VALID,0.142969,
2010-06-24, 02:55:04,VALID,1008,VALID,0,VALID,101.285,VALID,0,VALID,23.0121,VALID,57,VALID,0.210547,
2010-06-24, 02:56:04,VALID,1008.02,VALID,0,VALID,101.262,VALID,0.105969,VALID,23.0121,VALID,57,VALID,0,
2010-06-24, 02:57:04,VALID,1008.03,VALID,0,VALID,101.27,VALID,0,VALID,22.9909,VALID,57,VALID,0,
2010-06-24, 02:58:04,VALID,1008.02,VALID,0,VALID,101.255,VALID,0.105969,VALID,23.0121,VALID,57,VALID,0,
2010-06-24, 02:59:04,VALID,1008.06,VALID,0,VALID,101.262,VALID,0.105969,VALID,22.9909,VALID,57,VALID,0,
2010-06-24, 03:00:04,VALID,1008.06,VALID,0,VALID,101.255,VALID,0.105969,VALID,23.0121,VALID,57,VALID,0,
2010-06-24, 03:01:04,VALID,1008.06,VALID,0,VALID,101.247,VALID,0,VALID,23.0316,VALID,57,VALID,0,
2010-06-24, 03:02:04,VALID,1008.07,VALID,0,VALID,101.24,VALID,0,VALID,23.0103,VALID,57,VALID,0.240234,
2010-06-24, 03:03:04,VALID,1008.07,VALID,0,VALID,101.224,VALID,0,VALID,23.0316,VALID,57,VALID,0.457422,
2010-06-24, 03:04:04,VALID,1008.09,VALID,0,VALID,101.232,VALID,0,VALID,23.0511,VALID,57,VALID,0.135547,
2010-06-24, 03:05:04,VALID,1008.1,VALID,0,VALID,101.232,VALID,0,VALID,23.0511,VALID,57,VALID,0.0851562,
2010-06-24, 03:06:04,VALID,1008.09,VALID,0,VALID,101.209,VALID,0.105969,VALID,23.0705,VALID,57,VALID,0,
2010-06-24, 03:07:04,VALID,1008.1,VALID,0,VALID,101.201,VALID,0,VALID,23.09,VALID,57,VALID,0,
2010-06-24, 03:08:04,VALID,1008.09,VALID,0,VALID,101.194,VALID,0.105969,VALID,23.0688,VALID,156,VALID,0.283984,
2010-06-24, 03:09:04,VALID,1008.1,VALID,0,VALID,101.194,VALID,0.105969,VALID,23.1095,VALID,156,VALID,0.399609,
2010-06-24, 03:10:04,VALID,1008.08,VALID,0,VALID,101.217,VALID,0,VALID,23.1095,VALID,159,VALID,0.428516,
2010-06-24, 03:11:04,VALID,1008.09,VALID,0,VALID,101.201,VALID,0.105969,VALID,23.0883,VALID,159,VALID,0.448828,
2010-06-24, 03:12:04,VALID,1008.1,VALID,0,VALID,101.217,VALID,0,VALID,23.09,VALID,159,VALID,0.413672,
2010-06-24, 03:13:04,VALID,1008.09,VALID,0,VALID,101.217,VALID,0.105969,VALID,23.1095,VALID,159,VALID,0.342578,
2010-06-24, 03:14:04,VALID,1008.11,VALID,0,VALID,101.201,VALID,0.105969,VALID,23.0883,VALID,159,VALID,0.317578,
2010-06-24, 03:15:04,VALID,1008.13,VALID,0,VALID,101.209,VALID,0.105969,VALID,23.1077,VALID,159,VALID,0.258594,
2010-06-24, 03:16:04,VALID,1008.13,VALID,0,VALID,101.194,VALID,0.105969,VALID,23.1077,VALID,159,VALID,0,
2010-06-24, 03:17:04,VALID,1008.14,VALID,0,VALID,101.186,VALID,0,VALID,23.1272,VALID,159,VALID,0.251172,
2010-06-24, 03:18:04,VALID,1008.16,VALID,0,VALID,101.171,VALID,0.105969,VALID,23.1485,VALID,159,VALID,0.283984,
2010-06-24, 03:19:04,VALID,1008.15,VALID,0,VALID,101.194,VALID,0.105969,VALID,23.1467,VALID,159,VALID,0.132813,
2010-06-24, 03:20:04,VALID,1008.14,VALID,0,VALID,101.163,VALID,0.105969,VALID,23.1662,VALID,159,VALID,0.157422,
2010-06-24, 03:21:04,VALID,1008.13,VALID,0,VALID,101.156,VALID,0.105969,VALID,23.1857,VALID,159,VALID,0.00195313,
2010-06-24, 03:22:04,VALID,1008.11,VALID,0,VALID,101.163,VALID,0,VALID,23.2051,VALID,159,VALID,0.259766,
2010-06-24, 03:23:04,VALID,1008.09,VALID,0,VALID,101.156,VALID,0.105969,VALID,23.2051,VALID,159,VALID,0,
2010-06-24, 03:24:04,VALID,1008.03,VALID,0,VALID,101.163,VALID,0.105969,VALID,23.2246,VALID,159,VALID,0,
2010-06-24, 03:25:04,VALID,1008.02,VALID,0,VALID,101.133,VALID,0.105969,VALID,23.2459,VALID,159,VALID,0,
2010-06-24, 03:26:04,VALID,1007.99,VALID,0,VALID,101.148,VALID,0.105969,VALID,23.2246,VALID,159,VALID,0,
2010-06-24, 03:27:04,VALID,1007.99,VALID,0,VALID,101.14,VALID,0,VALID,23.2636,VALID,159,VALID,0,
2010-06-24, 03:28:04,VALID,1007.98,VALID,0,VALID,101.133,VALID,0,VALID,23.3043,VALID,159,VALID,0,
2010-06-24, 03:29:04,VALID,1007.98,VALID,0,VALID,101.133,VALID,0.105969,VALID,23.2831,VALID,159,VALID,0,
2010-06-24, 03:30:04,VALID,1007.99,VALID,0,VALID,101.156,VALID,0.105969,VALID,23.3026,VALID,159,VALID,0,
2010-06-24, 03:31:04,VALID,1007.99,VALID,0,VALID,101.14,VALID,0.105969,VALID,23.3026,VALID,159,VALID,0,
2010-06-24, 03:32:04,VALID,1007.98,VALID,0,VALID,101.148,VALID,0.105969,VALID,23.3433,VALID,159,VALID,0,
2010-06-24, 03:33:04,VALID,1007.99,VALID,0,VALID,101.117,VALID,0.105969,VALID,23.322,VALID,159,VALID,0,
2010-06-24, 03:34:04,VALID,1008.03,VALID,0,VALID,101.14,VALID,0.105969,VALID,23.3415,VALID,159,VALID,0,
2010-06-24, 03:35:04,VALID,1008.02,VALID,0,VALID,101.125,VALID,0.105969,VALID,23.3415,VALID,159,VALID,0,
2010-06-24, 03:36:04,VALID,1008.02,VALID,0,VALID,101.125,VALID,0.105969,VALID,23.3628,VALID,159,VALID,0,
2010-06-24, 03:37:04,VALID,1008.02,VALID,0,VALID,101.117,VALID,0.105969,VALID,23.3415,VALID,159,VALID,0,
2010-06-24, 03:38:04,VALID,1008.02,VALID,0,VALID,101.11,VALID,0,VALID,23.4017,VALID,159,VALID,0,
2010-06-24, 03:39:04,VALID,1008.02,VALID,0,VALID,101.125,VALID,0.105969,VALID,23.3805,VALID,159,VALID,0,
2010-06-24, 03:40:04,VALID,1008.02,VALID,0,VALID,101.102,VALID,0.105969,VALID,23.4,VALID,159,VALID,0,
2010-06-24, 03:41:04,VALID,1008.03,VALID,0,VALID,101.095,VALID,0.105969,VALID,23.4212,VALID,159,VALID,0,
2010-06-24, 03:42:04,VALID,1008.07,VALID,0,VALID,101.11,VALID,0,VALID,23.4194,VALID,159,VALID,0,
2010-06-24, 03:43:04,VALID,1008.11,VALID,0,VALID,101.125,VALID,0.105969,VALID,23.4212,VALID,159,VALID,0,
2010-06-24, 03:44:04,VALID,1008.09,VALID,0,VALID,101.117,VALID,0.105969,VALID,23.4194,VALID,159,VALID,0,
2010-06-24, 03:45:04,VALID,1008.11,VALID,0,VALID,101.117,VALID,0.105969,VALID,23.4194,VALID,159,VALID,0,
2010-06-24, 03:46:04,VALID,1008.12,VALID,0,VALID,101.095,VALID,0.105969,VALID,23.4602,VALID,159,VALID,0,